Tracking 27380 objects as of 5-Jun-2023
HD Live streaming from Space Station
objects crossing your sky now

DELTA 1 DEB

Track DELTA 1 DEB now!
10-day predictions


NORAD ID: 7182
Int'l Code: 1973-086ET
Perigee: 1,103.3 km
Apogee: 1,626.7 km
Inclination: 102.5 °
Period: 112.9 minutes
Semi major axis: 7735 km
RCS: 0.0751 m2 (small)
Launch date: November 6, 1973
Source: United States (US)
Launch site: AIR FORCE WESTERN TEST RANGE (AFWTR)

Note: This is SATELLITE DEBRIS
Your satellite tracking list
Your tracking list is empty




NASA's NSSDC Master Catalog

Two Line Element Set (TLE):
1 07182U 73086ET  23156.58935764  .00000934  00000-0  36263-2 0  9994
2 07182 102.5146 193.9543 0338303 232.0705 284.8081 12.75937496546573
Source of the keplerian elements: AFSPC